#timestamp,LO_Frequency,Hit,StdDev 
1709766015.9,286047002.9,N
1709766035.7,286047005.4,N
1709766055.6,286047002.9,N
1709766075.4,286047003.6,N
1709766095.2,286047001.4,N
1709766115.1,286047003.6,N
1709766116.0,286047003.6,N
1709766135.8,286047001.6,N
1709766155.6,286047000.5,N
1709766175.5,286046999.8,N
1709766195.3,286047001.0,N
1709766215.2,286046999.5,N
1709766235.9,286047001.2,N
1709766255.7,286046998.6,N
1709766275.6,286047001.1,N
1709766295.4,286047000.5,N
1709766315.2,286047001.6,N
1709766335.1,286047001.3,N
1709766336.0,286047001.3,N
1709766355.8,286047005.4,N
1709766375.7,286047007.4,Y
1709766395.5,286047005.9,P
1709766415.3,286047003.1,N
1709766435.2,286047007.5,P
1709766455.0,286047006.8,Y
1709766455.9,286047006.8,P
1709766475.8,286047002.1,N
1709766495.6,286047005.8,N
1709766515.4,286047004.6,N
1709766535.3,286047005.0,Y
1709766555.1,286046999.8,P
1709766575.8,286047003.0,N
1709766595.7,286047003.0,N
1709766615.5,286047007.1,Y
1709766635.4,286047003.7,P
1709766655.2,286047004.5,P
1709766675.0,286047007.4,P
1709766675.9,286047007.4,Y
1709766695.8,286047003.4,P
1709766715.6,286047007.4,P
1709766735.5,286047004.6,N
1709766755.3,286047006.6,Y
1709766775.1,286047004.0,P
1709766795.9,286047003.1,P
1709766815.7,286047004.9,P
1709766835.6,286047007.5,Y
1709766855.4,286047002.6,P
1709766875.2,286047003.3,P
1709766895.1,286047001.7,N
1709766896.0,286047001.7,N
1709766915.8,286047002.4,N
1709766935.6,286047002.8,Y
1709766955.5,286046997.3,P
1709766975.3,286046999.2,N
1709766995.2,286046998.6,N
1709767015.9,286046999.9,N
1709767035.7,286047002.8,N
1709767055.6,286047004.4,N
1709767075.4,286047005.3,N
1709767095.3,286047005.8,N
1709767115.1,286047005.1,N
1709767116.0,286047005.1,N
1709767135.8,286047007.4,N
1709767155.7,286047006.2,N
1709767175.5,286047008.5,N
1709767195.3,286047012.1,Y
1709767215.2,286047006.7,P
1709767235.0,286047008.8,P
1709767235.9,286047008.8,P
1709767255.8,286047010.5,Y
1709767275.6,286047003.4,P
1709767295.4,286047003.6,N
1709767315.3,286047005.1,P
1709767335.1,286047007.2,Y
1709767355.9,286047001.4,P
1709767375.7,286047006.0,P
1709767395.5,286047007.6,P
1709767415.4,286047005.4,N
1709767435.2,286047003.4,N
1709767455.0,286047004.4,N
1709767456.0,286047004.4,N
1709767475.8,286047001.9,N
1709767495.6,286047001.7,N
1709767515.5,286047004.3,N
1709767535.3,286047003.8,N
1709767555.1,286046998.9,N
1709767575.9,286046998.1,N
1709767595.7,286046996.8,N
1709767615.5,286046999.0,N
1709767635.4,286046998.2,N
1709767655.2,286047000.8,N
1709767675.1,286047002.7,N
1709767676.0,286047002.7,N
1709767725.8,286046998.2,E
1709767735.7,286047000.7,N
1709767755.6,286047001.3,P
1709767775.4,286047000.2,N
1709767795.3,286047001.8,Y
1709767815.1,286047003.3,P
1709767835.8,286047003.1,N
1709767855.7,286047002.9,N
1709767875.5,286047003.4,Y
1709767895.4,286047000.5,P
1709767915.2,286047002.8,N
1709767935.0,286047001.9,N
1709767935.9,286047001.9,N
1709767955.8,286047000.0,N
1709767975.6,286046999.9,N
1709767995.4,286047002.4,N
1709768015.3,286047005.6,Y
1709768065.1,286047002.1,E
1709768075.1,286046999.8,N
1709768076.0,286046999.8,P
1709768095.8,286047001.4,P
1709768115.6,286047003.7,Y
1709768135.5,286047001.7,P
1709768155.3,286047004.4,P
1709768175.2,286047001.6,N
1709768195.9,286047000.1,N
1709768215.8,286047002.7,N
1709768235.6,286047001.6,N
1709768255.4,286047003.7,N
1709768275.3,286047002.5,N
1709768295.1,286047003.9,N
1709768315.8,286047001.8,N
1709768335.7,286047003.3,N
1709768355.5,286047005.6,Y
1709768375.4,286047001.4,P
1709768395.2,286047001.9,P
1709768415.0,286047006.0,P
1709768415.9,286047006.0,Y
1709768435.8,286047004.0,P
1709768455.6,286047005.5,P
1709768475.5,286047004.7,P
1709768495.3,286047009.0,Y
1709768515.1,286047005.9,P
1709768535.9,286047004.9,P
1709768555.7,286047006.3,P
1709768575.6,286047010.1,Y
1709768595.4,286047003.7,P
1709768615.2,286047003.3,P
1709768635.1,286047004.4,P
1709768636.0,286047004.4,Y
1709768655.8,286046999.2,P
1709768675.6,286047000.0,N
1709768695.5,286046999.9,N
1709768715.3,286047004.4,N
1709768735.2,286047003.2,N
1709768755.9,286047006.8,Y
1709768775.7,286047009.0,P
1709768795.6,286047010.3,N
1709768815.4,286047007.7,N
1709768835.2,286047009.6,N
1709768855.1,286047009.8,Y
1709768856.0,286047009.8,P
1709768875.8,286047002.2,N
1709768895.7,286047005.4,N
1709768915.5,286047005.0,N
1709768935.3,286047004.9,N
1709768955.2,286047007.5,Y
1709768975.0,286046998.2,P
1709768975.9,286046998.2,N
1709768995.8,286047000.9,N
1709769015.6,286047002.1,N
1709769035.4,286047005.5,N
1709769055.3,286047005.2,N
1709769075.1,286047006.5,N
1709769095.9,286047008.9,N
1709769115.7,286047010.8,Y
1709769135.5,286047010.2,P
1709769155.4,286047011.0,P
1709769175.2,286047016.3,P
1709769195.0,286047019.8,Y
1709769195.9,286047019.8,P
1709769215.8,286047013.8,N
1709769235.6,286047012.6,P
1709769255.5,286047015.9,Y
1709769275.3,286047002.9,P
1709769295.1,286047007.2,N
1709769315.9,286047006.8,N
1709769335.7,286047013.4,Y
1709769355.5,286047008.6,P
1709769375.4,286047013.6,P
1709769395.2,286047014.1,P
1709769415.1,286047019.6,Y
1709769416.0,286047019.6,P
1709769435.8,286047009.4,N
1709769455.6,286047014.0,P
1709769475.5,286047015.6,Y
1709769495.3,286047003.1,P
1709769515.2,286047003.1,N
1709769535.9,286047005.3,N
1709769555.7,286047004.7,N
1709769575.6,286047005.9,N
1709769595.4,286047003.2,N
